Orbital Elements at Epoch 2459000.5 (2020-May-31.0) TDB
Reference: JPL 10 (heliocentric ecliptic J2000)
Element | Value | Uncertainty (1-sigma) | Units |
e | .1858300749587247 | 6.0237e-08 | |
a | 2.402186632892301 | 1.4083e-08 | au |
q | 1.955788110837078 | 1.4627e-07 | au |
i | 11.03507310703586 | 7.3621e-06 | deg |
node | 93.88772969586852 | 2.7477e-05 | deg |
peri | 71.88016608374117 | 3.5336e-05 | deg |
M | 106.7600596832553 | 1.7803e-05 | deg |
tp | 2458597.212414721169 (2019-Apr-23.71241472) | 6.7474e-05 | TDB |
period | 1359.904922600472 3.72 | 1.1959e-05 3.274e-08 | d yr |
n | .2647243891959679 | 2.328e-09 | deg/d |
Q | 2.848585154947524 | 1.67e-08 | au |
|
| | Orbit Determination Parameters
Additional Information
|